Satellite: DO-64
Catalog number: 32789
Epoch time: 12207.94065942
Element set: 0375

Inclination:      097.8087 deg
RA of node:       270.9909 deg

Eccentricity: 0.0013326
Arg of perigee: 292.1145 deg
Mean anomaly: 067.8720 deg
Mean motion: 14.86052496 rev/day

Decay rate:      1.668e-05 rev/day^2
Epoch rev:           22963
Checksum:              346

Satellite: CO-66
Catalog number: 32791
Epoch time: 12207.77508642
Element set: 0357

Inclination:      097.7960 deg
RA of node:       267.9654 deg

Eccentricity: 0.0013879
Arg of perigee: 296.9791 deg
Mean anomaly: 062.9986 deg
Mean motion: 14.83528522 rev/day

Decay rate:       2.99e-06 rev/day^2
Epoch rev:           22946
Checksum:              381

Satellite: RS-30
Catalog number: 32953

Epoch time:      12208.72902822
Element set:     996
Inclination:      082.5018 deg
RA of node:       270.5517 deg

Eccentricity: 0.0017897
Arg of perigee: 218.2560 deg
Mean anomaly: 141.7256 deg
Mean motion: 12.43025952 rev/day

Decay rate:        1.0e-07 rev/day^2
Epoch rev:           18947
Checksum:              301

Satellite: PHARMSAT
Catalog number: 35002
Epoch time: 12207.95502455
Element set: 0015

Inclination:      040.4469 deg
RA of node:       176.4636 deg

Eccentricity: 0.0010190
Arg of perigee: 192.2002 deg
Mean anomaly: 167.8667 deg
Mean motion: 16.00073300 rev/day
Decay rate: 2.63504e-03 rev/day^2

Epoch rev:           18050
Checksum:              251

Satellite: METEOR-M
Catalog number: 35865

Epoch time:      12208.69711422
Element set:     626
Inclination:      098.6516 deg
RA of node:       262.2765 deg

Eccentricity: 0.0001820
Arg of perigee: 315.7558 deg
Mean anomaly: 044.3470 deg
Mean motion: 14.21866220 rev/day

Decay rate:       -2.3e-07 rev/day^2
Epoch rev:           14821
Checksum:              283

Satellite: RS-38
Catalog number: 35869

Epoch time:      12208.71238055
Element set:     634
Inclination:      098.6471 deg
RA of node:       262.2803 deg

Eccentricity: 0.0003983
Arg of perigee: 306.7039 deg
Mean anomaly: 053.3764 deg
Mean motion: 14.22079679 rev/day

Decay rate:        4.0e-08 rev/day^2
Epoch rev:           14823
Checksum:              317

Satellite: JUGNU
Catalog number: 37839
Epoch time: 12207.11801556
Element set: 0195

Inclination:      019.9619 deg
RA of node:       128.4323 deg

Eccentricity: 0.0018051
Arg of perigee: 281.9456 deg
Mean anomaly: 077.8912 deg
Mean motion: 14.12068974 rev/day

Decay rate:       6.20e-06 rev/day^2
Epoch rev:           04061
Checksum:              296

Satellite: SRMSAT
Catalog number: 37841

Epoch time:      12207.86103538
Element set:     193
Inclination:      019.9718 deg
RA of node:       129.5799 deg

Eccentricity: 0.0012159
Arg of perigee: 254.2404 deg
Mean anomaly: 105.6718 deg
Mean motion: 14.10151041 rev/day

Decay rate:       2.64e-06 rev/day^2
Epoch rev:            4065
Checksum:              280

Satellite: RAX-2
Catalog number: 37853
Epoch time: 12207.78402438
Element set: 0240

Inclination:      101.7120 deg
RA of node:       265.5489 deg

Eccentricity: 0.0246398
Arg of perigee: 240.8518 deg
Mean anomaly: 116.7838 deg
Mean motion: 14.80230772 rev/day

Decay rate:       8.96e-06 rev/day^2
Epoch rev:           04011
Checksum:              300

Satellite: AUBIESAT
Catalog number: 37854
Epoch time: 12207.79613690
Element set: 0246

Inclination:      101.7115 deg
RA of node:       265.8647 deg

Eccentricity: 0.0247144
Arg of perigee: 239.9262 deg
Mean anomaly: 117.7235 deg
Mean motion: 14.80628084 rev/day

Decay rate:       8.58e-06 rev/day^2
Epoch rev:           04010
Checksum:              303

Satellite: HRBE
Catalog number: 37855
Epoch time: 12207.74611131
Element set: 0240

Inclination:      101.7142 deg
RA of node:       265.7375 deg

Eccentricity: 0.0247575
Arg of perigee: 240.4105 deg
Mean anomaly: 117.2285 deg
Mean motion: 14.80477055 rev/day

Decay rate:      1.386e-05 rev/day^2
Epoch rev:           04009
Checksum:              273

Satellite: RS-39
Catalog number: 38051

Epoch time:      12208.85631832
Element set:     550
Inclination:      051.6346 deg
RA of node:       330.7260 deg

Eccentricity: 0.0014171
Arg of perigee: 175.9541 deg
Mean anomaly: 326.3103 deg
Mean motion: 15.24831138 rev/day

Decay rate:      3.914e-05 rev/day^2
Epoch rev:            2802
Checksum:              272

Satellite: E-STAR
Catalog number: 38079

Epoch time:      12208.44189787
Element set:     380
Inclination:      069.4872 deg
RA of node:       225.8130 deg

Eccentricity: 0.0734855
Arg of perigee: 198.4386 deg
Mean anomaly: 158.8770 deg
Mean motion: 14.17157047 rev/day

Decay rate:     2.2417e-04 rev/day^2
Epoch rev:            2314
Checksum:              334

Satellite: GOLIAT
Catalog number: 38085

Epoch time:      12208.46103518
Element set:     353
Inclination:      069.4893 deg
RA of node:       226.1713 deg

Eccentricity: 0.0740089
Arg of perigee: 198.7035 deg
Mean anomaly: 158.5540 deg
Mean motion: 14.16145910 rev/day

Decay rate:     2.1038e-04 rev/day^2
Epoch rev:            2313
Checksum:              288

Satellite: HORYU-2
Catalog number: 38340

Epoch time:      12208.64587174
Element set:      64
Inclination:      098.1753 deg
RA of node:       148.4643 deg

Eccentricity: 0.0011866
Arg of perigee: 201.2039 deg
Mean anomaly: 158.9175 deg
Mean motion: 14.70049443 rev/day

Decay rate:        4.5e-07 rev/day^2
Epoch rev:            1036
Checksum:              289

/EX


Via the Keps mailing list courtesy of AMSAT-NA http://amsat.org/mailman/listinfo/keps

The following information is a reminder of your current mailing list subscription:

You are subscribed to the following list:

[RADIOCOMM LIST]

using the following email:

example@example.com

You may automatically unsubscribe from this list at any time by visiting the following URL:

<http://www.aus-city.com/cgi-bin/dada/mail.cgi/u/RADIOCOMM_LIST/example/example.com/>

If the above URL is inoperable, make sure that you have copied the entire address. Some mail readers will wrap a long URL and thus break this automatic unsubscribe mechanism.

You may also change your subscription by visiting this list's main screen:

<http://www.aus-city.com/cgi-bin/dada/mail.cgi/list/RADIOCOMM_LIST>

If you're still having trouble, please contact the list owner at:

<mailto:list.admin@aus-city.com>

The following physical address is associated with this mailing list:

http://www.aus-city.com



<< Previous: TACSAT-3 Removed from KEP Distribution

| Archive Index |

Next: ALERT: Electron 2 MeV Integral Flux exceeded 1,000 pfu >>

(archive rss , atom rss/atom )

Forward to a Friend




As the final step, please type in the string of letters that you see in the below image into the text box:


(CAPTCHA is case sensitive)

this list's archives:


Radio Comm Report list. Deals with all modes of communications in the 150 KHz to 1300 MHz, including solar and atmospheric conditions.
Subscribe/Unsubscribe on [RADIOCOMM LIST]

* Required